Regional Weather Roundup
Issued by NWS

Home | Current Version | Previous Version | Text Only | Print | Product List | Glossary Off
Versions: 1 2 3 4 5 6 7 8 9 10 11 12 13 14 15 16 17 18 19 20 21 22 23 24 25 26 27 28 29 30 31 32 33 34 35 36 37 38 39 40 41 42 43 44 45 46 47 48 49 50

000
ASUS43 KLOT 212110
RWRIL

ILLINOIS REGIONAL WEATHER ROUNDUP
NATIONAL WEATHER SERVICE CHICAGO/ROMEOVILLE IL
400 PM CDT SUN SEP 21 2014

NOTE: "FAIR" INDICATES FEW OR NO CLOUDS BELOW 12,000 FEET WITH NO
SIGNIFICANT WEATHER AND/OR OBSTRUCTIONS TO VISIBILITY.

* THESE STATIONS ARE NOT UNDER NWS QUALITY CONTROL. THEY ALSO MAY NOT
  REPORT WEATHER SUCH AS PRECIPITATION OR FOG.

ILZ001-002-007-009-015-016-024-212200-
NORTHWEST ILLINOIS

CITY           SKY/WX    TMP DP  RH WIND       PRES   REMARKS
MOLINE         CLOUDY    64  51  62 NW10      30.07R
STERLING*      CLOUDY    66  54  63 NW15G21   30.03S
SAVANNA*       MOSUNNY   67  51  56 NW13      30.04R
$$

ILZ003-004-008-010-011-017-018-212200-
NORTH CENTRAL ILLINOIS

CITY           SKY/WX    TMP DP  RH WIND       PRES   REMARKS
ROCKFORD       PTSUNNY   66  50  56 N12G25    30.02R
ROCHELLE*      PTSUNNY   66  50  56 NW14G20   30.01R
DE KALB*       CLOUDY    64  51  61 NW18      30.00R
PERU*          PTSUNNY   66  51  57 NW16G23   30.02S
$$

ILZ005-006-012>014-019>023-212200-
NORTHEAST ILLINOIS

CITY           SKY/WX    TMP DP  RH WIND       PRES   REMARKS
CHICAGO-OHARE  PTSUNNY   69  50  50 N16G22    29.96R
CHICAGO-MIDWAY PTSUNNY   67  53  61 N9        29.95S
AURORA         PTSUNNY   67  49  52 N13G21    29.98S
LANSING*       CLOUDY    64  53  67 N9        29.96S
JOLIET*        PTSUNNY   66  48  52 NW8       29.98S
WAUKEGAN       CLOUDY    58  50  75 N10G21    29.97R
DUPAGE AIRPORT PTSUNNY   69  51  52 N14       29.97R
KANKAKEE*      CLOUDY    67  52  58 NW10G18   29.97S
WHEELING       CLOUDY    62  51  67 NE13      29.99R
MORRIS*        PTSUNNY   69  52  54 N7        29.98S
ROMEOVILLE*    MOSUNNY   65  50  58 NW8       29.97S
NORTHERLY ISL    N/A     62  52  69 N14         N/A
$$

LMZ740>746-212200-
SOUTHERN LAKE MICHIGAN

STATION/POSITION SKY/WX   TEMP    WIND        PRES    VSBY  WAVE
                          AIR SEA DIR/SP/G                  HT/PER
                          (F)     (DEG/KT/KT) (MB)    (MI)  (FT/S)
SOUTHERN BUOY              58 62  340/ 23/ 27 1014.0R         9/ 8
WAUKEGAN HARBOR            56      20/ 13/ 17   N/A
HARRISON CRIB              60     360/ 16/ 19   N/A
BURNHAM HARBOR             63     360/ 12/ 13   N/A
CALUMET HARBOR             62     340/ 11/ 14 1013.6R
MICHIGAN CITY              60     330/ 26/ 31   N/A
MICHIGAN CITY 6N           60 64  350/ 19/ 25   N/A           8/ 7
ST. JOSEPH                 60 65  350/ 25/ 33   N/A          10/ 7
$$

ILZ025>027-034>036-040-047-049-050-058-095>099-212200-
WEST-CENTRAL ILLINOIS

CITY           SKY/WX    TMP DP  RH WIND       PRES   REMARKS
QUINCY         CLOUDY    72  49  44 NW15      30.07R
GALESBURG*     CLOUDY    64  53  67 NW15      30.08R
MACOMB*        MOSUNNY   67  50  55 N17G24    30.09R
JACKSONVILLE*  MOSUNNY   72  50  45 NW14G25   30.05S
PITTSFIELD*    MOSUNNY   74  48  40 NW14G21   30.07R
$$

ILZ028>032-037-038-041>044-048-051>054-059>061-212200-
CENTRAL ILLINOIS

CITY           SKY/WX    TMP DP  RH WIND       PRES   REMARKS
PONTIAC        CLOUDY    66  52  59 NW9       30.00S
DECATUR        CLOUDY    70  51  51 NW17G26   30.02R
PEORIA         CLOUDY    68  50  52 NW10G20   30.05R
LACON*         CLOUDY    64  50  58 NW14      30.03R
LINCOLN*       PTSUNNY   71  50  46 N10G18    30.00R
SPRINGFIELD    MOSUNNY   73  50  44 NW13G22   30.03R
TAYLORVILLE    PTSUNNY   72  46  40 NW16      30.02R
$$

ILZ033-039-045-046-055>057-062-063-212200-
EAST-CENTRAL ILLINOIS

CITY           SKY/WX    TMP DP  RH WIND       PRES   REMARKS
CHAMPAIGN      MOSUNNY   66  50  56 NW17G26   30.00R
DANVILLE*      PTSUNNY   65  50  59 NW15G23   29.96R
RANTOUL*       PTSUNNY   69  47  45 NW13G24   30.01R
MATTOON        LGT RAIN  70  49  47 N22G30    29.98R
PARIS*         PTSUNNY   70  51  51 NW21G26   30.00R
$$

ILZ079-100>102-212200-
SOUTHWEST ILLINOIS

CITY           SKY/WX    TMP DP  RH WIND       PRES   REMARKS
ALTON          MOSUNNY   73  39  29 NW16      30.03R
BELLEVILLE     SUNNY     77  51  41 W14G21    30.01R
CAHOKIA*       SUNNY     79  48  33 NW17G23   30.02R
SPARTA*        SUNNY     78  47  33 NW15G22   30.01S
$$

ILZ064>066-069>071-074>076-080>082-084>086-088>090-092>094-212200-
SOUTH-CENTRAL ILLINOIS

CITY           SKY/WX    TMP DP  RH WIND       PRES   REMARKS
CARBONDALE     SUNNY     79  46  31 NW12G20   29.99F
CAIRO*         SUNNY     81  51  34 NW8       29.99S HX  80
EFFINGHAM*     MOSUNNY   75  40  29 NW17G26   29.99R
MT. VERNON     SUNNY     77  48  36 W7        30.00S
CENTRALIA*     MOSUNNY   76  47  35 NW13G23   30.00R
SALEM*         MOSUNNY   76  51  40 NW16G22     N/A
METROPOLIS*    SUNNY     81  51  35 NW6G16    29.98S HX  80
$$

ILZ067-068-072-073-078-083-087-091-212200-
SOUTHEAST ILLINOIS

CITY           SKY/WX    TMP DP  RH WIND       PRES   REMARKS
LAWRENCEVILLE  LGT RAIN  77  48  35 NW21      29.95S
FLORA*         SUNNY     76  46  34 NW14G24   29.99R
FAIRFIELD*     MOSUNNY  N/A N/A N/A NW6G20    29.97S
HARRISBURG*    SUNNY     78  47  33 NW17      29.99S
ROBINSON*      SUNNY     77  49  37 NW15G21   29.96S
CARMI*         SUNNY     80  51  35 W15G23    29.96F HX  80
$$

ABBREVIATIONS USED IN REMARKS
   TC - TEMPERATURE IN CELSIUS
  WCI - WIND CHILL INDEX
   HX - HEAT INDEX
  VSB - VISIBILITY
$$



USA.gov is the U.S. government's official web portal to all federal, state and local government web resources and services.